Time,TemperatureF,DewpointF,PressureIn,WindDirection,WindDirectionDegrees,WindSpeedMPH,WindSpeedGustMPH,Humidity,HourlyPrecipIn,Conditions,Clouds,dailyrainin,SoftwareType,DateUTC
2013-06-06 00:02:00,62.0,43.0,29.61,ESE,110,1.0,3.0,50,0.00,,,0.00,,2013-06-06 05:02:00,
2013-06-06 00:32:00,61.0,45.0,29.61,ESE,112,0.0,3.0,55,0.00,,,0.00,,2013-06-06 05:32:00,
2013-06-06 00:42:00,61.0,45.0,29.61,ESE,112,0.0,3.0,55,0.00,,,0.00,,2013-06-06 05:42:00,
2013-06-06 00:52:00,61.0,45.0,29.61,ESE,112,0.0,3.0,55,0.00,,,0.00,,2013-06-06 05:52:00,
2013-06-06 01:02:00,60.0,45.0,29.59,ESE,112,2.0,3.0,58,0.00,,,0.00,,2013-06-06 06:02:00,
2013-06-06 01:12:00,60.0,45.0,29.59,ESE,112,2.0,3.0,58,0.00,,,0.00,,2013-06-06 06:12:00,
2013-06-06 01:22:00,60.0,45.0,29.59,ESE,112,2.0,3.0,58,0.00,,,0.00,,2013-06-06 06:22:00,
2013-06-06 01:32:00,61.0,46.0,29.59,ESE,121,2.0,6.0,58,0.00,,,0.00,,2013-06-06 06:32:00,
2013-06-06 01:42:00,61.0,46.0,29.59,ESE,121,2.0,6.0,58,0.00,,,0.00,,2013-06-06 06:42:00,
2013-06-06 01:52:00,61.0,46.0,29.59,ESE,121,2.0,6.0,58,0.00,,,0.00,,2013-06-06 06:52:00,
2013-06-06 02:02:00,65.0,45.0,29.60,NE,37,5.0,16.0,48,0.00,,,0.00,,2013-06-06 07:02:00,
2013-06-06 02:12:00,65.0,45.0,29.60,NE,37,5.0,16.0,48,0.00,,,0.00,,2013-06-06 07:12:00,
2013-06-06 02:22:00,65.0,45.0,29.60,NE,37,5.0,16.0,48,0.00,,,0.00,,2013-06-06 07:22:00,
2013-06-06 02:32:00,62.0,45.0,29.63,NE,41,3.0,14.0,54,0.00,,,0.00,,2013-06-06 07:32:00,
2013-06-06 02:42:00,62.0,45.0,29.63,NE,41,3.0,14.0,54,0.00,,,0.00,,2013-06-06 07:42:00,
2013-06-06 02:52:00,62.0,45.0,29.63,NE,41,3.0,14.0,54,0.00,,,0.00,,2013-06-06 07:52:00,
2013-06-06 03:02:00,61.0,46.0,29.65,NNW,337,5.0,12.0,58,0.00,,,0.00,,2013-06-06 08:02:00,
2013-06-06 03:12:00,61.0,46.0,29.65,NNW,337,5.0,12.0,58,0.00,,,0.00,,2013-06-06 08:12:00,
2013-06-06 03:22:00,61.0,46.0,29.65,NNW,337,5.0,12.0,58,0.00,,,0.00,,2013-06-06 08:22:00,
2013-06-06 03:32:00,60.0,46.0,29.65,East,88,2.0,8.0,60,0.00,,,0.00,,2013-06-06 08:32:00,
2013-06-06 03:42:00,60.0,46.0,29.65,East,88,2.0,8.0,60,0.00,,,0.00,,2013-06-06 08:42:00,
2013-06-06 03:52:00,60.0,46.0,29.65,East,88,2.0,8.0,60,0.00,,,0.00,,2013-06-06 08:52:00,
2013-06-06 04:02:00,60.0,47.0,29.63,NW,323,6.0,17.0,62,0.00,,,0.00,,2013-06-06 09:02:00,
2013-06-06 04:12:00,60.0,47.0,29.63,NW,323,6.0,17.0,62,0.00,,,0.00,,2013-06-06 09:12:00,
2013-06-06 04:22:00,60.0,47.0,29.63,NW,323,6.0,17.0,62,0.00,,,0.00,,2013-06-06 09:22:00,
2013-06-06 04:33:00,59.0,47.0,29.64,North,0,1.0,12.0,64,0.00,,,0.00,,2013-06-06 09:33:00,
2013-06-06 04:43:00,59.0,47.0,29.64,North,0,1.0,12.0,64,0.00,,,0.00,,2013-06-06 09:43:00,
2013-06-06 04:53:00,59.0,47.0,29.64,North,0,1.0,12.0,64,0.00,,,0.00,,2013-06-06 09:53:00,
2013-06-06 05:03:00,57.0,47.0,29.67,North,0,0.0,5.0,69,0.00,,,0.00,,2013-06-06 10:03:00,
2013-06-06 05:12:00,57.0,47.0,29.67,North,0,0.0,5.0,69,0.00,,,0.00,,2013-06-06 10:12:00,
2013-06-06 05:23:00,57.0,47.0,29.67,North,0,0.0,5.0,69,0.00,,,0.00,,2013-06-06 10:23:00,
2013-06-06 05:33:00,54.0,46.0,29.67,North,0,0.0,1.0,74,0.00,,,0.00,,2013-06-06 10:33:00,
2013-06-06 05:42:00,54.0,46.0,29.67,North,0,0.0,1.0,74,0.00,,,0.00,,2013-06-06 10:42:00,
2013-06-06 05:53:00,54.0,46.0,29.67,North,0,0.0,1.0,74,0.00,,,0.00,,2013-06-06 10:53:00,
2013-06-06 06:02:00,56.0,47.0,29.67,North,0,0.0,5.0,73,0.00,,,0.00,,2013-06-06 11:02:00,
2013-06-06 06:12:00,56.0,47.0,29.67,North,0,0.0,5.0,73,0.00,,,0.00,,2013-06-06 11:12:00,
2013-06-06 06:22:00,55.0,48.0,29.67,North,0,0.0,2.0,77,0.00,,,0.00,,2013-06-06 11:22:00,
2013-06-06 06:32:00,55.0,48.0,29.67,North,0,0.0,2.0,77,0.00,,,0.00,,2013-06-06 11:32:00,
2013-06-06 06:42:00,55.0,48.0,29.67,North,0,0.0,2.0,77,0.00,,,0.00,,2013-06-06 11:42:00,
2013-06-06 06:52:00,53.0,47.0,29.67,North,0,0.0,3.0,81,0.00,,,0.00,,2013-06-06 11:52:00,
2013-06-06 07:02:00,53.0,47.0,29.67,North,0,0.0,3.0,81,0.00,,,0.00,,2013-06-06 12:02:00,
2013-06-06 07:12:00,53.0,47.0,29.67,North,0,0.0,3.0,81,0.00,,,0.00,,2013-06-06 12:12:00,
2013-06-06 07:22:00,51.0,46.0,29.69,North,0,0.0,2.0,84,0.00,,,0.00,,2013-06-06 12:22:00,
2013-06-06 07:33:00,51.0,46.0,29.69,North,0,0.0,2.0,84,0.00,,,0.00,,2013-06-06 12:33:00,
2013-06-06 07:43:00,51.0,46.0,29.69,North,0,0.0,2.0,84,0.00,,,0.00,,2013-06-06 12:43:00,
2013-06-06 07:53:00,51.0,46.0,29.69,North,0,0.0,2.0,84,0.00,,,0.00,,2013-06-06 12:53:00,
2013-06-06 08:03:00,52.0,48.0,29.70,North,0,0.0,3.0,85,0.00,,,0.00,,2013-06-06 13:03:00,
2013-06-06 08:13:00,52.0,48.0,29.70,North,0,0.0,3.0,85,0.00,,,0.00,,2013-06-06 13:13:00,
2013-06-06 08:22:00,57.0,50.0,29.68,North,0,0.0,1.0,77,0.00,,,0.00,,2013-06-06 13:22:00,
2013-06-06 08:32:00,57.0,50.0,29.68,North,0,0.0,1.0,77,0.00,,,0.00,,2013-06-06 13:32:00,
2013-06-06 08:43:00,57.0,50.0,29.68,North,0,0.0,1.0,77,0.00,,,0.00,,2013-06-06 13:43:00,
2013-06-06 08:53:00,62.0,51.0,29.72,NE,48,2.0,6.0,67,0.00,,,0.00,,2013-06-06 13:53:00,
2013-06-06 09:03:00,62.0,51.0,29.72,NE,48,2.0,6.0,67,0.00,,,0.00,,2013-06-06 14:03:00,
2013-06-06 09:13:00,62.0,51.0,29.72,NE,48,2.0,6.0,67,0.00,,,0.00,,2013-06-06 14:13:00,
2013-06-06 09:22:00,62.0,51.0,29.72,NE,48,2.0,6.0,67,0.00,,,0.00,,2013-06-06 14:22:00,
2013-06-06 09:33:00,62.0,51.0,29.72,NE,48,2.0,6.0,67,0.00,,,0.00,,2013-06-06 14:33:00,
2013-06-06 10:03:00,66.0,50.0,29.75,ESE,120,2.0,12.0,57,0.00,,,0.00,,2013-06-06 15:03:00,
2013-06-06 10:13:00,66.0,50.0,29.75,ESE,120,2.0,12.0,57,0.00,,,0.00,,2013-06-06 15:13:00,
2013-06-06 10:23:00,66.0,50.0,29.75,ESE,120,2.0,12.0,57,0.00,,,0.00,,2013-06-06 15:23:00,
2013-06-06 10:33:00,67.0,50.0,29.74,ENE,76,2.0,10.0,54,0.00,,,0.00,,2013-06-06 15:33:00,
2013-06-06 10:43:00,67.0,50.0,29.74,ENE,76,2.0,10.0,54,0.00,,,0.00,,2013-06-06 15:43:00,
2013-06-06 10:53:00,67.0,50.0,29.74,ENE,76,2.0,10.0,54,0.00,,,0.00,,2013-06-06 15:53:00,
2013-06-06 11:03:00,69.0,48.0,29.75,East,82,4.0,8.0,48,0.00,,,0.00,,2013-06-06 16:03:00,
2013-06-06 11:12:00,69.0,48.0,29.75,East,82,4.0,8.0,48,0.00,,,0.00,,2013-06-06 16:12:00,
2013-06-06 11:23:00,69.0,48.0,29.75,East,82,4.0,8.0,48,0.00,,,0.00,,2013-06-06 16:23:00,
2013-06-06 11:33:00,71.0,50.0,29.74,ENE,72,2.0,9.0,47,0.00,,,0.00,,2013-06-06 16:33:00,
2013-06-06 11:44:00,71.0,50.0,29.74,ENE,72,2.0,9.0,47,0.00,,,0.00,,2013-06-06 16:44:00,
2013-06-06 11:53:00,71.0,50.0,29.74,ENE,72,2.0,9.0,47,0.00,,,0.00,,2013-06-06 16:53:00,
2013-06-06 12:03:00,71.0,49.0,29.75,ENE,71,4.0,10.0,45,0.00,,,0.00,,2013-06-06 17:03:00,
2013-06-06 12:13:00,71.0,49.0,29.75,ENE,71,4.0,10.0,45,0.00,,,0.00,,2013-06-06 17:13:00,
2013-06-06 12:23:00,71.0,49.0,29.75,ENE,71,4.0,10.0,45,0.00,,,0.00,,2013-06-06 17:23:00,
2013-06-06 12:33:00,73.0,51.0,29.76,NE,44,3.0,10.0,46,0.00,,,0.00,,2013-06-06 17:33:00,
2013-06-06 12:43:00,73.0,51.0,29.76,NE,44,3.0,10.0,46,0.00,,,0.00,,2013-06-06 17:43:00,
2013-06-06 12:53:00,73.0,51.0,29.76,NE,44,3.0,10.0,46,0.00,,,0.00,,2013-06-06 17:53:00,
2013-06-06 13:03:00,73.0,51.0,29.74,East,80,5.0,10.0,46,0.00,,,0.00,,2013-06-06 18:03:00,
2013-06-06 13:13:00,73.0,51.0,29.74,East,80,5.0,10.0,46,0.00,,,0.00,,2013-06-06 18:13:00,
2013-06-06 13:23:00,73.0,51.0,29.74,East,80,5.0,10.0,46,0.00,,,0.00,,2013-06-06 18:23:00,
2013-06-06 13:33:00,74.0,52.0,29.73,NE,51,3.0,12.0,47,0.00,,,0.00,,2013-06-06 18:33:00,
2013-06-06 13:43:00,74.0,52.0,29.73,NE,51,3.0,12.0,47,0.00,,,0.00,,2013-06-06 18:43:00,
2013-06-06 13:53:00,74.0,52.0,29.73,NE,51,3.0,12.0,47,0.00,,,0.00,,2013-06-06 18:53:00,
2013-06-06 14:03:00,74.0,50.0,29.74,East,100,4.0,13.0,43,0.00,,,0.00,,2013-06-06 19:03:00,
2013-06-06 14:13:00,74.0,50.0,29.74,East,100,4.0,13.0,43,0.00,,,0.00,,2013-06-06 19:13:00,
2013-06-06 14:23:00,74.0,50.0,29.74,East,100,4.0,13.0,43,0.00,,,0.00,,2013-06-06 19:23:00,
2013-06-06 14:33:00,75.0,51.0,29.72,ENE,75,4.0,12.0,43,0.00,,,0.00,,2013-06-06 19:33:00,
2013-06-06 14:43:00,75.0,51.0,29.72,ENE,75,4.0,12.0,43,0.00,,,0.00,,2013-06-06 19:43:00,
2013-06-06 14:53:00,75.0,51.0,29.72,ENE,75,4.0,12.0,43,0.00,,,0.00,,2013-06-06 19:53:00,
2013-06-06 15:03:00,75.0,52.0,29.72,SSE,162,6.0,13.0,44,0.00,,,0.00,,2013-06-06 20:03:00,
2013-06-06 15:13:00,75.0,52.0,29.72,SSE,162,6.0,13.0,44,0.00,,,0.00,,2013-06-06 20:13:00,
2013-06-06 15:23:00,75.0,52.0,29.72,SSE,162,6.0,13.0,44,0.00,,,0.00,,2013-06-06 20:23:00,
2013-06-06 15:33:00,76.0,51.0,29.71,SE,136,8.0,12.0,42,0.00,,,0.00,,2013-06-06 20:33:00,
2013-06-06 15:43:00,76.0,51.0,29.71,SE,136,8.0,12.0,42,0.00,,,0.00,,2013-06-06 20:43:00,
2013-06-06 15:53:00,76.0,51.0,29.71,SE,136,8.0,12.0,42,0.00,,,0.00,,2013-06-06 20:53:00,
2013-06-06 16:03:00,77.0,51.0,29.71,East,88,5.0,12.0,40,0.00,,,0.00,,2013-06-06 21:03:00,
2013-06-06 16:13:00,77.0,51.0,29.71,East,88,5.0,12.0,40,0.00,,,0.00,,2013-06-06 21:13:00,
2013-06-06 16:23:00,77.0,51.0,29.71,East,88,5.0,12.0,40,0.00,,,0.00,,2013-06-06 21:23:00,
2013-06-06 16:33:00,77.0,51.0,29.70,ENE,61,6.0,16.0,41,0.00,,,0.00,,2013-06-06 21:33:00,
2013-06-06 16:44:00,77.0,51.0,29.70,ENE,61,6.0,16.0,41,0.00,,,0.00,,2013-06-06 21:44:00,
2013-06-06 16:53:00,77.0,51.0,29.70,ENE,61,6.0,16.0,41,0.00,,,0.00,,2013-06-06 21:53:00,
2013-06-06 17:03:00,74.0,51.0,29.75,ENE,71,2.0,12.0,44,0.00,,,0.00,,2013-06-06 22:03:00,
2013-06-06 17:13:00,74.0,51.0,29.75,ENE,71,2.0,12.0,44,0.00,,,0.00,,2013-06-06 22:13:00,
2013-06-06 17:23:00,74.0,51.0,29.75,ENE,71,2.0,12.0,44,0.00,,,0.00,,2013-06-06 22:23:00,
2013-06-06 17:33:00,76.0,51.0,29.72,ENE,77,4.0,13.0,41,0.00,,,0.00,,2013-06-06 22:33:00,
2013-06-06 17:43:00,76.0,51.0,29.72,ENE,77,4.0,13.0,41,0.00,,,0.00,,2013-06-06 22:43:00,
2013-06-06 17:53:00,76.0,51.0,29.72,ENE,77,4.0,13.0,41,0.00,,,0.00,,2013-06-06 22:53:00,
2013-06-06 18:02:00,77.0,50.0,29.72,SSE,147,6.0,9.0,39,0.00,,,0.00,,2013-06-06 23:02:00,
2013-06-06 18:13:00,77.0,50.0,29.72,SSE,147,6.0,9.0,39,0.00,,,0.00,,2013-06-06 23:13:00,
2013-06-06 18:22:00,77.0,50.0,29.72,SSE,147,6.0,9.0,39,0.00,,,0.00,,2013-06-06 23:22:00,
2013-06-06 18:33:00,76.0,51.0,29.71,SE,130,7.0,12.0,41,0.00,,,0.00,,2013-06-06 23:33:00,
2013-06-06 18:43:00,76.0,51.0,29.71,SE,130,7.0,12.0,41,0.00,,,0.00,,2013-06-06 23:43:00,
2013-06-06 18:52:00,76.0,51.0,29.71,SE,130,7.0,12.0,41,0.00,,,0.00,,2013-06-06 23:52:00,
2013-06-06 19:02:00,76.0,51.0,29.73,ENE,73,4.0,12.0,42,0.00,,,0.00,,2013-06-07 00:02:00,
2013-06-06 19:12:00,76.0,51.0,29.73,ENE,73,4.0,12.0,42,0.00,,,0.00,,2013-06-07 00:12:00,
2013-06-06 19:22:00,76.0,51.0,29.73,ENE,73,4.0,12.0,42,0.00,,,0.00,,2013-06-07 00:22:00,
2013-06-06 19:32:00,75.0,52.0,29.73,East,85,3.0,12.0,44,0.00,,,0.00,,2013-06-07 00:32:00,
2013-06-06 19:42:00,75.0,52.0,29.73,East,85,3.0,12.0,44,0.00,,,0.00,,2013-06-07 00:42:00,
2013-06-06 19:52:00,75.0,52.0,29.73,East,85,3.0,12.0,44,0.00,,,0.00,,2013-06-07 00:52:00,
2013-06-06 20:02:00,74.0,51.0,29.69,NE,54,5.0,13.0,44,0.00,,,0.00,,2013-06-07 01:02:00,
2013-06-06 20:12:00,74.0,51.0,29.69,NE,54,5.0,13.0,44,0.00,,,0.00,,2013-06-07 01:12:00,
2013-06-06 20:22:00,74.0,51.0,29.69,NE,54,5.0,13.0,44,0.00,,,0.00,,2013-06-07 01:22:00,
2013-06-06 20:32:00,73.0,52.0,29.69,NE,55,2.0,12.0,47,0.00,,,0.00,,2013-06-07 01:32:00,
2013-06-06 20:42:00,73.0,52.0,29.69,NE,55,2.0,12.0,47,0.00,,,0.00,,2013-06-07 01:42:00,
2013-06-06 20:52:00,73.0,52.0,29.69,NE,55,2.0,12.0,47,0.00,,,0.00,,2013-06-07 01:52:00,
2013-06-06 21:02:00,72.0,52.0,29.69,East,79,2.0,10.0,50,0.00,,,0.00,,2013-06-07 02:02:00,
2013-06-06 21:12:00,72.0,52.0,29.69,East,79,2.0,10.0,50,0.00,,,0.00,,2013-06-07 02:12:00,
2013-06-06 21:22:00,72.0,52.0,29.69,East,79,2.0,10.0,50,0.00,,,0.00,,2013-06-07 02:22:00,
2013-06-06 21:32:00,70.0,51.0,29.71,East,82,1.0,9.0,51,0.00,,,0.00,,2013-06-07 02:32:00,
2013-06-06 21:42:00,70.0,51.0,29.71,East,82,1.0,9.0,51,0.00,,,0.00,,2013-06-07 02:42:00,
2013-06-06 21:52:00,70.0,51.0,29.71,East,82,1.0,9.0,51,0.00,,,0.00,,2013-06-07 02:52:00,
2013-06-06 22:02:00,69.0,52.0,29.70,NE,40,0.0,6.0,54,0.00,,,0.00,,2013-06-07 03:02:00,
2013-06-06 22:12:00,69.0,52.0,29.70,NE,40,0.0,6.0,54,0.00,,,0.00,,2013-06-07 03:12:00,
2013-06-06 22:22:00,69.0,52.0,29.70,NE,40,0.0,6.0,54,0.00,,,0.00,,2013-06-07 03:22:00,
2013-06-06 22:33:00,68.0,52.0,29.72,NE,56,0.0,7.0,57,0.00,,,0.00,,2013-06-07 03:33:00,
2013-06-06 22:44:00,68.0,52.0,29.72,NE,56,0.0,7.0,57,0.00,,,0.00,,2013-06-07 03:44:00,
2013-06-06 22:53:00,68.0,52.0,29.72,NE,56,0.0,7.0,57,0.00,,,0.00,,2013-06-07 03:53:00,
2013-06-06 23:03:00,67.0,52.0,29.72,ENE,58,0.0,3.0,59,0.00,,,0.00,,2013-06-07 04:03:00,
2013-06-06 23:12:00,67.0,52.0,29.72,ENE,58,0.0,3.0,59,0.00,,,0.00,,2013-06-07 04:12:00,
2013-06-06 23:23:00,64.0,52.0,29.75,ENE,58,0.0,1.0,66,0.00,,,0.00,,2013-06-07 04:23:00,
2013-06-06 23:33:00,64.0,52.0,29.75,ENE,58,0.0,1.0,66,0.00,,,0.00,,2013-06-07 04:33:00,
2013-06-06 23:42:00,64.0,52.0,29.75,ENE,58,0.0,1.0,66,0.00,,,0.00,,2013-06-07 04:42:00,
2013-06-06 23:53:00,61.0,52.0,29.76,ENE,58,0.0,1.0,71,0.00,,,0.00,,2013-06-07 04:53:00,